EW5954 Weather Reports


time (UTC)temp
C
wind
direction
speed
KPH
gust
KPH
rain 1hr
cm
rain 24hr
cm
rain mn
cm
humidity
%
barometer
mb
20260505225803 10 30 0.0 4.8 0.00 0.10 0.10 75
20260505225300 10 1 3.2 4.8 0.00 0.10 0.10 75
20260505224513 10 36 3.2 4.8 0.00 0.10 0.10 78
20260505224010 10 36 3.2 4.8 0.00 0.10 0.10 78
20260505223507 10 33 0.0 4.8 0.00 0.10 0.10 78
20260505223004 10 26 0.0 3.2 0.00 0.10 0.10 78
20260505222500 10 49 1.6 8.0 0.00 0.10 0.10 78
20260505221955 10 15 1.6 3.2 0.00 0.10 0.10 79
20260505221453 10 19 3.2 3.2 0.00 0.10 0.10 79
20260505220950 10 50 3.2 8.0 0.00 0.10 0.10 79
20260505220447 10 103 1.6 8.0 0.00 0.10 0.10 81
20260505215945 10 31 3.2 4.8 0.00 0.10 0.10 81
20260505215443 10 16 4.8 8.0 0.00 0.10 0.10 81
20260505214940 10 1 0.0 4.8 0.00 0.10 0.10 81
20260505214438 10 28 4.8 8.0 0.00 0.10 0.10 81
20260505213935 10 33 1.6 8.0 0.00 0.10 0.10 82
20260505213433 10 20 4.8 8.0 0.00 0.10 0.10 82
20260505212929 10 350 1.6 3.2 0.00 0.10 0.10 83
20260505212426 10 36 4.8 8.0 0.00 0.10 0.10 83
20260505211922 10 5 3.2 4.8 0.00 0.10 0.10 83
20260505211420 10 45 3.2 8.0 0.00 0.10 0.10 82
20260505210916 10 60 6.4 9.7 0.00 0.10 0.10 81
20260505210413 10 33 3.2 4.8 0.00 0.10 0.10 81
20260505205910 10 78 8.0 12.9 0.00 0.10 0.10 82
20260505205409 10 46 3.2 8.0 0.00 0.10 0.10 83
20260505204905 10 34 4.8 9.7 0.00 0.10 0.10 83
20260505204403 10 33 4.8 9.7 0.00 0.10 0.10 84
20260505203900 10 236 1.6 8.0 0.00 0.10 0.10 84
20260505203356 10 309 3.2 4.8 0.00 0.10 0.10 85
20260505202852 10 24 0.0 3.2 0.00 0.10 0.10 85
20260505202349 10 58 4.8 14.5 0.00 0.10 0.10 83
20260505201846 10 359 1.6 11.3 0.18 0.10 0.10 84
20260505201343 10 38 3.2 9.7 0.18 0.10 0.10 83
20260505200841 11 0 3.2 4.8 0.18 0.08 0.08 82
20260505200338 11 41 4.8 8.0 0.30 0.08 0.08 79
20260505195833 11 5 1.6 8.0 0.13 0.05 0.05 77
20260505195330 11 45 4.8 11.3 0.00 0.03 0.03 76
20260505194827 12 29 4.8 8.0 0.00 0.03 0.03 75
20260505194325 12 22 3.2 16.1 0.00 0.03 0.03 73
20260505193820 12 55 4.8 8.0 0.18 0.03 0.03 74
20260505193318 12 100 4.8 9.7 0.18 0.03 0.03 73
20260505192816 12 1 1.6 12.9 0.00 0.00 0.00 69
20260505192314 13 18 1.6 8.0 0.00 0.00 0.00 67
20260505191811 13 20 0.0 8.0 0.00 0.00 0.00 63
20260505191309 13 317 4.8 8.0 0.00 0.00 0.00 60
20260505190806 13 46 4.8 12.9 0.00 0.00 0.00 59
20260505190301 14 48 4.8 9.7 0.00 0.00 0.00 59
20260505185757 14 24 6.4 11.3 0.00 0.00 0.00 59
20260505185254 15 60 11.3 16.1 0.00 0.00 0.00 55
20260505184750 15 18 3.2 14.5 0.00 0.00 0.00 54
20260505184247 15 92 9.7 22.5 0.00 0.00 0.00 53
20260505183744 15 66 9.7 12.9 0.00 0.00 0.00 53
20260505183241 15 52 4.8 11.3 0.00 0.00 0.00 52
20260505182738 15 35 11.3 20.9 0.00 0.00 0.00 52
20260505182235 15 330 3.2 9.7 0.00 0.00 0.00 53
20260505181731 15 104 12.9 17.7 0.00 0.00 0.00 52
20260505181229 15 322 9.7 27.4 0.00 0.00 0.00 53
20260505180725 15 226 3.2 14.5 0.00 0.00 0.00 53
20260505180222 15 284 4.8 9.7 0.00 0.00 0.00 53
20260505175718 15 48 6.4 14.5 0.00 0.00 0.00 53
20260505175215 15 47 4.8 20.9 0.00 0.00 0.00 54
20260505174711 16 166 1.6 24.1 0.00 0.00 0.00 53
20260505174208 16 337 14.5 29.0 0.00 0.00 0.00 52
20260505173704 16 63 3.2 12.9 0.00 0.00 0.00 54
20260505173201 16 345 3.2 11.3 0.00 0.00 0.00 54
20260505172658 16 337 8.0 9.7 0.00 0.00 0.00 55
20260505172155 16 86 1.6 12.9 0.00 0.00 0.00 57
20260505171654 15 342 1.6 12.9 0.00 0.00 0.00 57
20260505171152 16 65 9.7 12.9 0.00 0.00 0.00 57
20260505170649 16 217 3.2 14.5 0.00 0.00 0.00 59
20260505170146 16 51 4.8 17.7 0.00 0.00 0.00 58
20260505165646 16 208 4.8 8.0 0.00 0.00 0.00 59
20260505165142 15 105 9.7 17.7 0.00 0.00 0.00 59
20260505164638 16 76 12.9 17.7 0.00 0.00 0.00 59
20260505164136 16 177 8.0 16.1 0.00 0.00 0.00 60
20260505163634 16 116 4.8 9.7 0.00 0.00 0.00 60
20260505163131 16 333 0.0 9.7 0.00 0.00 0.00 60
20260505162628 16 330 0.0 4.8 0.00 0.00 0.00 61
20260505162126 16 65 8.0 9.7 0.00 0.00 0.00 62
20260505161623 15 8 9.7 22.5 0.00 0.00 0.00 63
20260505161120 15 74 4.8 16.1 0.00 0.00 0.00 66
20260505160618 15 315 8.0 12.9 0.00 0.00 0.00 66
20260505160115 15 43 6.4 9.7 0.00 0.00 0.00 67
20260505153055 15 38 6.4 12.9 0.00 0.00 0.00 69
20260505152551 15 229 4.8 8.0 0.00 0.00 0.00 70
20260505152047 15 19 4.8 11.3 0.00 0.00 0.00 72
20260505151542 15 51 8.0 12.9 0.00 0.00 0.00 73
20260505151040 15 322 3.2 12.9 0.00 0.00 0.00 75
20260505150536 15 24 8.0 17.7 0.00 0.00 0.00 75
20260505140501 16 77 4.8 9.7 0.00 0.00 0.00 76
20260505124915 16 126 3.2 8.0 0.00 0.00 0.00 77
20260505124412 16 56 1.6 9.7 0.00 0.00 0.00 77
20260505123908 16 259 8.0 12.9 0.00 0.00 0.00 77
20260505123404 16 39 1.6 4.8 0.00 0.00 0.00 77
20260505122900 16 330 0.0 11.3 0.00 0.00 0.00 77
20260505122358 16 15 0.0 8.0 0.00 0.00 0.00 77
20260505121854 15 25 4.8 9.7 0.00 0.00 0.00 77
20260505121351 15 254 1.6 8.0 0.00 0.00 0.00 77
20260505120847 15 56 0.0 9.7 0.00 0.00 0.00 77
20260505120343 15 88 3.2 8.0 0.00 0.00 0.00 77
20260505115842 15 7 0.0 4.8 0.00 0.00 0.00 77
20260505115340 15 280 1.6 8.0 0.00 0.00 0.00 77
20260505114838 15 357 4.8 8.0 0.00 0.00 0.00 77
20260505114334 15 138 3.2 8.0 0.00 0.00 0.00 77
20260505113830 15 148 4.8 8.0 0.00 0.00 0.00 77
20260505113327 15 190 6.4 9.7 0.00 0.00 0.00 77
20260505112823 15 99 3.2 4.8 0.00 0.00 0.00 77
20260505112320 15 157 3.2 12.9 0.00 0.00 0.00 77
20260505111816 15 85 0.0 11.3 0.00 0.00 0.00 77
20260505111311 15 255 1.6 3.2 0.00 0.00 0.00 77
20260505110807 15 329 1.6 11.3 0.00 0.00 0.00 77
20260505110305 15 265 3.2 9.7 0.00 0.00 0.00 77
20260505101739 15 31 3.2 9.7 0.00 0.00 0.00 76
20260505101235 15 13 1.6 8.0 0.00 0.00 0.00 76
20260505100732 15 140 1.6 12.9 0.00 0.00 0.00 76
20260505100229 15 332 3.2 12.9 0.00 0.00 0.00 77
20260505095724 15 294 3.2 11.3 0.00 0.00 0.00 77
20260505095222 15 323 0.0 8.0 0.00 0.00 0.00 77
20260505094718 15 182 1.6 4.8 0.00 0.00 0.00 77
20260505094214 15 253 4.8 11.3 0.00 0.00 0.00 77
20260505093711 15 2 4.8 4.8 0.00 0.00 0.00 77
20260505093208 15 288 1.6 9.7 0.00 0.00 0.00 77
20260505092704 15 272 3.2 4.8 0.00 0.00 0.00 77
20260505092204 15 240 1.6 3.2 0.00 0.00 0.00 77
20260505091700 15 216 6.4 12.9 0.00 0.00 0.00 76
20260505091158 15 356 4.8 9.7 0.00 0.00 0.00 76
20260505090655 16 135 1.6 16.1 0.00 0.00 0.00 76
20260505090154 16 244 1.6 8.0 0.00 0.00 0.00 75
20260505085651 16 158 3.2 9.7 0.00 0.00 0.00 75
20260505085149 16 33 1.6 8.0 0.00 0.00 0.00 75
20260505084646 16 31 0.0 4.8 0.00 0.00 0.00 74
20260505084145 16 300 0.0 8.0 0.00 0.00 0.00 74
20260505083642 16 89 0.0 1.6 0.00 0.00 0.00 74
20260505083138 16 288 3.2 8.0 0.00 0.00 0.00 74
20260505082634 16 300 3.2 9.7 0.00 0.00 0.00 74
20260505082131 16 303 4.8 11.3 0.00 0.00 0.00 75
20260505081627 16 258 3.2 8.0 0.00 0.00 0.00 75
20260505081125 16 162 3.2 4.8 0.00 0.00 0.00 75
20260505080621 16 175 3.2 8.0 0.00 0.00 0.00 75
20260505080117 16 100 3.2 12.9 0.00 0.00 0.00 75
20260505075614 16 237 3.2 8.0 0.00 0.00 0.00 75
20260505075111 16 0 0.0 8.0 0.00 0.00 0.00 74
20260505074608 16 224 4.8 12.9 0.00 0.00 0.00 74
20260505074105 16 270 1.6 4.8 0.00 0.00 0.00 74
20260505073602 16 245 8.0 14.5 0.00 0.00 0.00 74
20260505073101 16 160 3.2 14.5 0.00 0.00 0.00 74
20260505072556 16 12 3.2 16.1 0.00 0.00 0.00 73
20260505072053 16 330 11.3 17.7 0.00 0.00 0.00 73
20260505071548 16 250 12.9 17.7 0.00 0.00 0.00 73
20260505071046 16 357 8.0 12.9 0.00 0.00 0.00 73
20260505070543 16 200 6.4 9.7 0.00 0.00 0.00 73
20260505070039 16 308 8.0 12.9 0.00 0.00 0.00 72
20260505065535 16 138 3.2 9.7 0.00 0.00 0.00 73
20260505065032 16 235 3.2 12.9 0.00 0.00 0.00 73
20260505064529 16 199 6.4 16.1 0.00 0.00 0.00 72
20260505064027 16 298 4.8 9.7 0.00 0.00 0.00 73
20260505063524 16 281 4.8 8.0 0.00 0.00 0.00 72
20260505063020 16 255 8.0 11.3 0.00 0.00 0.00 73
20260505062517 16 182 4.8 12.9 0.00 0.00 0.00 72
20260505062014 16 276 3.2 11.3 0.00 0.00 0.00 72
20260505061512 16 285 4.8 24.1 0.00 0.00 0.00 72
20260505061009 16 25 3.2 12.9 0.00 0.00 0.00 72
20260505060507 16 125 3.2 11.3 0.00 0.00 0.00 72
20260505060003 16 247 8.0 14.5 0.00 0.00 0.00 72
20260505055458 16 223 1.6 14.5 0.00 0.00 0.00 72
20260505054955 16 238 8.0 12.9 0.00 0.00 0.00 72
20260505054453 16 202 3.2 8.0 0.00 0.00 0.00 72
20260505053950 16 298 6.4 17.7 0.00 0.00 0.00 71
20260505053447 16 40 3.2 9.7 0.00 0.00 0.00 71
20260505052944 16 275 3.2 12.9 0.00 0.00 0.00 71
20260505052442 16 229 3.2 11.3 0.00 0.00 0.00 70
20260505051938 16 353 4.8 9.7 0.00 0.00 0.00 69
20260505051435 16 102 4.8 11.3 0.00 0.00 0.00 69
20260505050933 16 281 8.0 12.9 0.00 0.00 0.00 68
20260505050432 16 256 4.8 11.3 0.00 0.00 0.00 69
20260505041359 17 253 4.8 11.3 0.00 0.00 0.00 69
20260505040856 17 283 4.8 9.7 0.00 0.00 0.00 69
20260505040354 17 102 0.0 17.7 0.00 0.00 0.00 69
20260505035850 17 213 4.8 11.3 0.00 0.00 0.00 68
20260505035346 17 140 6.4 9.7 0.00 0.00 0.00 68
20260505034844 17 290 1.6 24.1 0.00 0.00 0.00 67
20260505034340 17 231 4.8 12.9 0.00 0.00 0.00 67
20260505033837 17 172 4.8 9.7 0.00 0.00 0.00 67
20260505033334 17 289 8.0 12.9 0.00 0.00 0.00 66
20260505032832 17 243 8.0 14.5 0.00 0.00 0.00 66
20260505032328 17 304 4.8 16.1 0.00 0.00 0.00 66
20260505031826 17 229 4.8 16.1 0.00 0.00 0.00 65
20260505031322 17 301 8.0 12.9 0.00 0.00 0.00 65
20260505030819 17 316 3.2 11.3 0.00 0.00 0.00 64
20260505030315 17 286 8.0 12.9 0.00 0.00 0.00 64
20260505025811 17 157 4.8 8.0 0.00 0.00 0.00 63
20260505025309 17 199 4.8 8.0 0.00 0.00 0.00 63
20260505024807 18 169 1.6 16.1 0.00 0.00 0.00 62
20260505024304 18 307 3.2 11.3 0.00 0.00 0.00 61
20260505023801 18 283 3.2 8.0 0.00 0.00 0.00 60
20260505023258 18 267 4.8 9.7 0.00 0.00 0.00 60
20260505022755 18 261 4.8 11.3 0.00 0.00 0.00 59
20260505022252 18 182 8.0 11.3 0.00 0.00 0.00 58
20260505021749 17 313 1.6 4.8 0.00 0.00 0.00 58
20260505021246 17 324 1.6 4.8 0.00 0.00 0.00 57
20260505020742 18 351 3.2 3.2 0.00 0.00 0.00 56
20260505020237 18 308 1.6 9.7 0.00 0.00 0.00 56
20260505015735 18 344 0.0 4.8 0.00 0.00 0.00 55
20260505015232 17 252 4.8 8.0 0.00 0.00 0.00 55
20260505014729 17 266 0.0 8.0 0.00 0.00 0.00 54
20260505014226 18 305 3.2 3.2 0.00 0.00 0.00 53
20260505013722 18 234 1.6 3.2 0.00 0.00 0.00 53
20260505013220 18 291 1.6 4.8 0.00 0.00 0.00 52
20260505012718 18 279 3.2 3.2 0.00 0.00 0.00 51
20260505012215 18 192 0.0 4.8 0.00 0.00 0.00 51
20260505011710 18 277 3.2 8.0 0.00 0.00 0.00 50
20260505011208 18 265 4.8 4.8 0.00 0.00 0.00 49
20260505010703 18 249 3.2 8.0 0.00 0.00 0.00 49
20260505010200 18 324 0.0 4.8 0.00 0.00 0.00 49
20260505005656 18 65 0.0 4.8 0.00 0.00 0.00 48
20260505005154 18 342 1.6 4.8 0.00 0.00 0.00 47
20260505004650 18 162 3.2 8.0 0.00 0.00 0.00 47
20260505004147 18 182 0.0 3.2 0.00 0.00 0.00 46
20260505003644 19 5 0.0 12.9 0.00 0.00 0.00 45
20260505003142 19 312 8.0 11.3 0.00 0.00 0.00 44
20260505002638 19 260 3.2 9.7 0.00 0.00 0.00 44
20260505002136 20 201 6.4 9.7 0.00 0.00 0.00 43
20260505001633 20 238 8.0 12.9 0.00 0.00 0.00 42
20260505001130 20 33 3.2 8.0 0.00 0.00 0.00 42
20260505000627 20 165 3.2 14.5 0.00 0.00 0.00 41
20260505000125 20 344 4.8 12.9 0.00 0.00 0.00 41
20260504235621 20 212 8.0 11.3 0.00 0.00 0.00 41
20260504235118 20 4 0.0 9.7 0.00 0.00 0.00 41
20260504234615 20 104 1.6 11.3 0.00 0.00 0.00 40
20260504234112 20 257 9.7 16.1 0.00 0.00 0.00 40
20260504233608 20 162 3.2 12.9 0.00 0.00 0.00 40
20260504233104 20 232 1.6 17.7 0.00 0.00 0.00 40
20260504232602 20 187 4.8 11.3 0.00 0.00 0.00 40
20260504232059 20 274 14.5 25.7 0.00 0.00 0.00 39
20260504231555 21 169 3.2 12.9 0.00 0.00 0.00 40
20260504231051 21 214 9.7 22.5 0.00 0.00 0.00 38
20260504230547 21 279 11.3 17.7 0.00 0.00 0.00 38